Regional Weather Roundup
Issued by NWS

Home | Current Version | Previous Version | Graphics & Text | Print | Product List | Glossary On
Versions: 1 2 3 4 5 6 7 8 9 10 11 12 13 14 15 16 17 18 19 20 21 22 23 24 25 26 27 28 29 30 31 32 33 34 35 36 37 38 39 40 41 42 43 44 45 46 47 48 49 50
000
ASUS43 KLSX 271507
RWRMO

WEATHER SUMMARY FOR MISSOURI
NATIONAL WEATHER SERVICE SPRINGFIELD MO
1000 AM CDT FRI MAR 27 2015

NOTE: "FAIR" INDICATES FEW OR NO CLOUDS BELOW 12,000 FEET WITH NO
       SIGNIFICANT WEATHER AND/OR OBSTRUCTIONS TO VISIBILITY.
       CURRENT SKY AND/OR WEATHER CONDITIONS ARE NOT AVAILABLE FOR
       CHILLICOTHE AND FARMINGTON.

MOZ001>031-035>038-043-044-053-054-271600-
...NORTHERN AND WESTERN MISSOURI...

CITY           SKY/WX    TMP DP  RH WIND       PRES   REMARKS
KANSAS CTY INT PTSUNNY   34  24  67 N10       30.27R WCI  26
KANSAS C DTWN  PTSUNNY   37  23  56 N12       30.27R WCI  29
LEE`S SUMMIT   MOSUNNY   34  23  64 N14       30.26R WCI  25
ST JOSEPH      MOSUNNY   33  22  63 N13       30.30R WCI  24
CHILLICOTHE      N/A     35  21  56 N10G18    30.27R WCI  27
KIRKSVILLE     PTSUNNY   34  19  54 N13       30.23R WCI  25

$$
MOZ066>068-077>081-088>096-101>105-271600-
...SOUTHWEST MISSOURI...

CITY           SKY/WX    TMP DP  RH WIND       PRES   REMARKS
SPRINGFIELD    LGT RAIN  36  32  85 N14       30.19R WCI  27
JOPLIN         PTSUNNY   40  31  70 N12       30.23R

$$
MOZ032>034-039>042-045>050-055>058-069>072-271600-
...CENTRAL MISSOURI...

CITY           SKY/WX    TMP DP  RH WIND       PRES   REMARKS
COLUMBIA       CLOUDY    35  26  69 N12       30.20S WCI  27
JEFFERSON CITY CLOUDY    36  23  59 N12       30.22R WCI  28
ROLLA          PTSUNNY   34  25  69 MISG      30.16R
SEDALIA        MOSUNNY   34  25  69 N14       30.23R WCI  25
WHITEMAN AFB   MOSUNNY   35  24  64 N15       30.23R WCI  25
WARRENSBURG    MOSUNNY   34  25  69 N9        30.25S WCI  26
OSAGE BEACH    CLOUDY    34  27  75 N7        30.20R WCI  28

$$
MOZ051-052-059>065-271600-
...EAST CENTRAL MISSOURI...

CITY           SKY/WX    TMP DP  RH WIND       PRES   REMARKS
ST LOUIS INTL  PTSUNNY   37  25  61 N15       30.18R WCI  28
SPIRIT OF STL  PTSUNNY   37  23  56 N7        30.18R
ST CHARLES     CLOUDY    36  24  62 N10       30.19R WCI  28

$$
MOZ072>076-082>087-097>100-106>115-271600-
...SOUTH CENTRAL AND SOUTHEAST MISSOURI...

CITY           SKY/WX    TMP DP  RH WIND       PRES   REMARKS
CAPE GIRARDEAU CLOUDY    38  32  79 N17       30.13R WCI  28
FARMINGTON     CLOUDY    34  27  75 NW10      30.17R WCI  26
POPLAR BLUFF   CLOUDY    41  29  62 N16       30.12R
WEST PLAINS    CLOUDY    37  32  82 MISG      30.14R

$$


USA.gov is the U.S. government's official web portal to all federal, state and local government web resources and services.